AMOS-3

Last updated on Wed Aug 12 2026 00:02:59 GMT+0000 (Coordinated Universal Time)

1 32794U 08022A 26222.14142124 -.00000150 00000+0 00000+0 0 9995 2 32794 0.5890 85.3907 0007061 85.3104 277.1712 1.00354120 82885
UTC large
Height (km)
Speed (km/s)
/
Latitude / Longitude
Inclination (degrees)
Orbital Period (minutes)
Azimuth
Elevation
Range (km)
Doppler Factor

Next 0 passes for location: London (51.5072 / 0.1276)

No passes found over London.
AMOS-3